Location: Deneb Observatory
(47.2267°N, 100.4953°W)
Time: 12:49:44
(UTC-05:00)

Amateur Radio Satellites - All Passes

Search period start: 31 October 2014 12:19
Search period end: 01 November 2014 12:19
Location: Deneb Observatory, 47.2267°N, 100.4953°W

Satellite Date Start Highest point End Downlink Frequencies (MHz)
Time Altitude Azimuth
Saudisat 1A 31 Oct 12:30:18 12:31:00 10° 17° (NNE) 12:31:43 436.775 MHz
Oscar 16 31 Oct 12:34:54 12:37:19 14° 54° (NE) 12:39:44 437.025 USB, Beacon 2401.1428
Oscar 11 31 Oct 12:40:18 12:43:47 24° 295° (WNW) 12:47:15 145.825 FM, Beacon 2401.500 USB
ISS 31 Oct 12:50:34 12:53:52 63° 340° (NNW) 12:57:12 145.800 FM
SO-50 31 Oct 12:52:04 12:56:36 79° 309° (NW) 13:01:18 436.795 FM
FUNcube-1 31 Oct 12:56:37 13:00:25 34° 292° (WNW) 13:04:10 145.950 - 145.970 MHz USB
Uribyol 2 31 Oct 13:08:12 13:10:16 12° 53° (NE) 13:12:19 436.500 FM
AO-Echo 31 Oct 13:09:59 13:12:38 14° 55° (NE) 13:15:19 ?
ITAMSAT 1 31 Oct 13:15:41 13:18:08 14° 54° (NE) 13:20:36 435.822 SSB
Oscar 19 31 Oct 13:24:27 13:28:57 32° 65° (ENE) 13:33:27 437.125 CW, 437.150 USB
KITSAT 1 31 Oct 13:31:59 13:39:49 52° 316° (NW) 13:47:41 435.175 FM
Sapphire 31 Oct 13:34:29 13:38:51 25° 251° (WSW) 13:43:11 437.095 MHz 1200 baud AX-25 AFSK
UOSAT-12 31 Oct 13:36:26 13:40:38 34° 117° (ESE) 13:44:54 437.025 FM, 437.400 FM
JAS-1B 31 Oct 13:36:35 13:41:49 40° 64° (ENE) 13:47:11 435.800 - 435.900 CW/SSB
ZACube-1 31 Oct 13:52:00 13:53:19 11° 303° (WNW) 13:54:38 437.345 MHz
PCSat 31 Oct 13:57:07 14:00:14 16° 256° (WSW) 14:03:20 145.825 MHz
AO-27 31 Oct 14:00:44 14:05:14 30° 63° (ENE) 14:09:46 436.795 MHz FM
HO-68 31 Oct 14:01:57 14:03:08 10° 322° (NW) 14:04:19 435.675 MHz FM
Saudisat 1A 31 Oct 14:08:06 14:12:00 29° 40° (NE) 14:15:53 436.775 MHz
Oscar 16 31 Oct 14:10:42 14:15:51 79° 73° (ENE) 14:21:01 437.025 USB, Beacon 2401.1428
Gurwin Techsat 1B 31 Oct 14:16:41 14:20:49 24° 61° (ENE) 14:24:59 435.225 FM
TMSAT-1 31 Oct 14:23:24 14:27:16 21° 59° (ENE) 14:31:07 436.925 FM
ISS 31 Oct 14:27:47 14:30:55 36° 360° (N) 14:34:04 145.800 FM
SO-50 31 Oct 14:34:38 14:37:56 19° 330° (NNW) 14:41:18 436.795 FM
Uribyol 2 31 Oct 14:43:37 14:48:48 70° 72° (ENE) 14:54:02 436.500 FM
AO-Echo 31 Oct 14:45:33 14:50:34 84° 74° (ENE) 14:55:48 ?
ITAMSAT 1 31 Oct 14:51:34 14:56:46 77° 73° (ENE) 15:02:02 435.822 SSB
AO-7 31 Oct 15:02:27 15:08:55 27° 49° (NE) 15:15:23 29.400 - 29.500 MHz
Oscar 19 31 Oct 15:03:26 15:08:12 38° 263° (W) 15:13:00 437.125 CW, 437.150 USB
UOSAT-12 31 Oct 15:16:20 15:20:44 40° 317° (NW) 15:25:13 437.025 FM, 437.400 FM
JAS-1B 31 Oct 15:27:39 15:32:42 32° 265° (W) 15:37:48 435.800 - 435.900 CW/SSB
KITSAT 1 31 Oct 15:31:08 15:37:19 23° 343° (NNW) 15:43:30 435.175 FM
AO-27 31 Oct 15:39:39 15:44:36 42° 262° (W) 15:49:35 436.795 MHz FM
Saudisat 1A 31 Oct 15:47:30 15:51:45 47° 239° (WSW) 15:55:59 436.775 MHz
Oscar 16 31 Oct 15:52:54 15:55:49 15° 272° (W) 15:58:45 437.025 USB, Beacon 2401.1428
Gurwin Techsat 1B 31 Oct 15:55:12 16:00:25 58° 259° (W) 16:05:41 435.225 FM
JAS-2 31 Oct 15:59:46 16:02:50 13° 44° (NE) 16:06:00 435.800 - 435.900 CW/SSB, 435.910 FM
TMSAT-1 31 Oct 16:01:25 16:06:41 67° 258° (WSW) 16:12:00 436.925 FM
ISS 31 Oct 16:04:39 16:07:59 63° 20° (NNE) 16:11:18 145.800 FM
Uribyol 2 31 Oct 16:25:20 16:28:48 18° 270° (W) 16:32:17 436.500 FM
AO-Echo 31 Oct 16:27:28 16:30:04 14° 273° (W) 16:32:42 ?
ITAMSAT 1 31 Oct 16:33:43 16:36:52 16° 271° (W) 16:40:02 435.822 SSB
Uosat F 31 Oct 16:37:22 16:42:08 45° 68° (ENE) 16:46:57 435.120 FM
AO-7 31 Oct 16:52:28 17:00:46 90° 250° (WSW) 17:09:07 29.400 - 29.500 MHz
UOSAT-12 31 Oct 16:59:53 17:02:10 13° 340° (NNW) 17:04:28 437.025 FM, 437.400 FM
KITSAT 1 31 Oct 17:30:02 17:36:00 22° 13° (NNE) 17:41:58 435.175 FM
JAS-2 31 Oct 17:39:53 17:46:08 53° 66° (ENE) 17:53:11 435.800 - 435.900 CW/SSB, 435.910 FM
ISS 31 Oct 17:41:35 17:44:30 28° 218° (SW) 17:47:25 145.800 FM
Hamsat 31 Oct 17:44:07 17:47:36 26° 66° (ENE) 17:51:05 145.90 MHz
SO-50 31 Oct 18:00:50 18:03:08 13° 20° (NNE) 18:05:28 436.795 FM
Uosat F 31 Oct 18:16:58 18:21:07 26° 266° (W) 18:25:19 435.120 FM
OPAL 31 Oct 18:42:26 18:47:02 37° 100° (E) 18:51:36 ?
AO-7 31 Oct 18:48:42 18:54:38 21° 271° (W) 19:00:38 29.400 - 29.500 MHz
HO-68 31 Oct 19:12:15 19:15:09 13° 42° (NE) 19:18:04 435.675 MHz FM
Hamsat 31 Oct 19:19:41 19:23:27 32° 264° (W) 19:27:13 145.90 MHz
JAS-2 31 Oct 19:25:48 19:31:31 33° 269° (W) 19:37:54 435.800 - 435.900 CW/SSB, 435.910 FM
KITSAT 1 31 Oct 19:26:05 19:33:46 44° 41° (NE) 19:41:25 435.175 FM
SO-50 31 Oct 19:40:28 19:45:00 39° 43° (NE) 19:49:35 436.795 FM
Oscar 10/S400 31 Oct 19:48:43 20:14:51 48° 188° (S) 03:26:57 145.825 - 145.975 CW/USB, Beacon 145.810 USB
SO-67 31 Oct 19:59:15 20:02:41 80° 258° (WSW) 20:06:09 435.3500 MHz FM
OPAL 31 Oct 20:21:29 20:25:51 32° 298° (WNW) 20:30:11 ?
UOSAT-12 31 Oct 20:23:13 20:26:33 18° 29° (NNE) 20:29:51 437.025 FM, 437.400 FM
STRAND 1 31 Oct 20:38:54 20:44:05 71° 103° (ESE) 20:49:12 ?
RS-15 31 Oct 20:51:41 21:00:29 29° 104° (ESE) 21:09:14 29.354 - 29.394 USB, Beacon 29.352 USB
HO-68 31 Oct 20:54:24 21:01:14 50° 64° (ENE) 21:08:06 435.675 MHz FM
SO-50 31 Oct 21:21:07 21:25:35 38° 242° (WSW) 21:30:05 436.795 FM
KITSAT 1 31 Oct 21:21:36 21:29:29 59° 244° (WSW) 21:37:19 435.175 FM
UKube-1 31 Oct 21:27:42 21:31:11 24° 64° (ENE) 21:34:41 145.840 MHz, 145.915 MHz
ZACube-1 31 Oct 21:38:44 21:41:02 14° 59° (ENE) 21:43:19 437.345 MHz
Oscar 11 31 Oct 22:01:37 22:05:42 44° 70° (ENE) 22:09:49 145.825 FM, Beacon 2401.500 USB
UOSAT-12 31 Oct 22:02:46 22:07:31 73° 50° (NE) 22:12:11 437.025 FM, 437.400 FM
STRAND 1 31 Oct 22:19:11 22:22:44 19° 302° (WNW) 22:26:16 ?
FUNcube-1 31 Oct 22:19:30 22:23:29 32° 67° (ENE) 22:27:23 145.950 - 145.970 MHz USB
MaSat-1 31 Oct 22:24:23 22:27:11 20° 110° (ESE) 22:29:48 437.345 MHz
HO-68 31 Oct 22:42:32 22:49:06 38° 263° (W) 22:55:44 435.675 MHz FM
RS-15 31 Oct 23:00:33 23:11:33 85° 308° (NW) 23:22:36 29.354 - 29.394 USB, Beacon 29.352 USB
UKube-1 31 Oct 23:03:03 23:07:10 40° 261° (W) 23:11:18 145.840 MHz, 145.915 MHz
ZACube-1 31 Oct 23:12:21 23:16:52 79° 257° (WSW) 23:21:19 437.345 MHz
KITSAT 1 31 Oct 23:20:44 23:23:09 12° 264° (W) 23:25:34 435.175 FM
Oscar 11 31 Oct 23:38:54 23:42:06 20° 268° (W) 23:45:19 145.825 FM, Beacon 2401.500 USB
UOSAT-12 31 Oct 23:44:04 23:47:07 17° 249° (WSW) 23:50:09 437.025 FM, 437.400 FM
FUNcube-1 31 Oct 23:55:51 23:59:50 30° 264° (W) 00:03:46 145.950 - 145.970 MHz USB
MaSat-1 31 Oct 23:58:56 00:02:25 36° 304° (NW) 00:05:34 437.345 MHz
RS-15 01 Nov 01:15:37 01:25:35 38° 337° (NNW) 01:35:43 29.354 - 29.394 USB, Beacon 29.352 USB
Oscar 16 01 Nov 02:19:59 02:23:54 22° 92° (E) 02:27:48 437.025 USB, Beacon 2401.1428
Sapphire 01 Nov 02:36:08 02:40:36 27° 110° (ESE) 02:45:06 437.095 MHz 1200 baud AX-25 AFSK
AO-Echo 01 Nov 02:50:14 02:54:27 23° 92° (E) 02:58:37 ?
Uribyol 2 01 Nov 02:54:10 02:57:52 19° 91° (E) 03:01:32 436.500 FM
PCSat 01 Nov 02:56:58 03:02:02 42° 114° (ESE) 03:07:08 145.825 MHz
ITAMSAT 1 01 Nov 03:02:06 03:06:04 22° 92° (E) 03:10:00 435.822 SSB
JAS-1B 01 Nov 03:04:47 03:11:42 55° 101° (E) 03:19:56 435.800 - 435.900 CW/SSB
Oscar 19 01 Nov 03:11:18 03:16:22 59° 101° (E) 03:21:25 437.125 CW, 437.150 USB
RS-15 01 Nov 03:32:11 03:41:48 33° 11° (N) 03:51:38 29.354 - 29.394 USB, Beacon 29.352 USB
AO-27 01 Nov 03:49:09 03:54:18 55° 101° (E) 03:59:24 436.795 MHz FM
Oscar 16 01 Nov 03:58:36 04:03:36 55° 290° (WNW) 04:08:35 437.025 USB, Beacon 2401.1428
Gurwin Techsat 1B 01 Nov 04:08:10 04:13:17 45° 98° (E) 04:18:21 435.225 FM
TMSAT-1 01 Nov 04:14:12 04:19:09 39° 97° (E) 04:24:05 436.925 FM
Sapphire 01 Nov 04:18:25 04:23:43 55° 309° (NW) 04:29:04 437.095 MHz 1200 baud AX-25 AFSK
OPAL 01 Nov 04:24:03 04:27:08 17° 54° (NE) 04:30:13 ?
AO-Echo 01 Nov 04:28:19 04:33:32 55° 290° (WNW) 04:38:40 ?
Uribyol 2 01 Nov 04:32:38 04:37:48 63° 289° (WNW) 04:42:54 436.500 FM
PCSat 01 Nov 04:40:30 04:45:31 38° 314° (NW) 04:50:35 145.825 MHz
ITAMSAT 1 01 Nov 04:40:48 04:45:56 57° 290° (WNW) 04:51:01 435.822 SSB
Uosat F 01 Nov 04:44:54 04:45:43 10° 86° (E) 04:46:32 435.120 FM
AO-7 01 Nov 04:51:16 04:57:51 25° 91° (E) 05:04:24 29.400 - 29.500 MHz
Oscar 19 01 Nov 04:51:27 04:55:19 22° 300° (WNW) 04:59:10 437.125 CW, 437.150 USB
JAS-1B 01 Nov 04:55:58 05:02:09 37° 297° (WNW) 05:09:21 435.800 - 435.900 CW/SSB
AO-27 01 Nov 05:29:20 05:33:29 24° 299° (WNW) 05:37:36 436.795 MHz FM
RS-15 01 Nov 05:45:56 05:56:55 61° 42° (NE) 06:08:18 29.354 - 29.394 USB, Beacon 29.352 USB
Gurwin Techsat 1B 01 Nov 05:48:32 05:53:03 29° 297° (WNW) 05:57:34 435.225 FM
TMSAT-1 01 Nov 05:54:17 05:59:00 33° 295° (WNW) 06:03:42 436.925 FM
Saudisat 1A 01 Nov 05:57:27 06:00:43 21° 113° (ESE) 06:04:00 436.775 MHz
OPAL 01 Nov 06:00:17 06:05:24 85° 253° (WSW) 06:10:28 ?
Sapphire 01 Nov 06:05:07 06:08:23 16° 332° (NNW) 06:11:40 437.095 MHz 1200 baud AX-25 AFSK
AO-Echo 01 Nov 06:11:03 06:11:09 10° 309° (NW) 06:11:16 ?
Uribyol 2 01 Nov 06:14:49 06:16:16 11° 308° (NW) 06:17:42 436.500 FM
Uosat F 01 Nov 06:20:16 06:25:21 78° 104° (ESE) 06:30:23 435.120 FM
STRAND 1 01 Nov 06:20:30 06:24:23 22° 60° (ENE) 06:28:17 ?
ITAMSAT 1 01 Nov 06:23:48 06:24:21 10° 309° (NW) 06:24:53 435.822 SSB
PCSat 01 Nov 06:28:13 06:30:34 13° 338° (NNW) 06:32:55 145.825 MHz
JAS-2 01 Nov 06:30:21 06:37:44 42° 94° (E) 06:44:52 435.800 - 435.900 CW/SSB, 435.910 FM
AO-7 01 Nov 06:43:10 06:51:31 81° 292° (WNW) 06:59:52 29.400 - 29.500 MHz
Hamsat 01 Nov 07:01:40 07:05:32 33° 96° (E) 07:09:23 145.90 MHz
Saudisat 1A 01 Nov 07:35:37 07:39:56 56° 312° (NW) 07:44:17 436.775 MHz
OPAL 01 Nov 07:43:09 07:45:01 12° 271° (W) 07:46:52 ?
STRAND 1 01 Nov 07:58:05 08:03:10 60° 259° (WSW) 08:08:17 ?
RS-15 01 Nov 07:58:38 08:09:10 50° 247° (WSW) 08:20:09 29.354 - 29.394 USB, Beacon 29.352 USB
Uosat F 01 Nov 08:00:18 08:03:32 17° 303° (WNW) 08:06:46 435.120 FM
MaSat-1 01 Nov 08:04:48 08:07:21 77° 60° (ENE) 08:09:43 437.345 MHz
JAS-2 01 Nov 08:15:18 08:22:51 52° 294° (WNW) 08:30:13 435.800 - 435.900 CW/SSB, 435.910 FM
AO-7 01 Nov 08:37:02 08:43:10 24° 314° (NW) 08:49:20 29.400 - 29.500 MHz
Hamsat 01 Nov 08:37:51 08:41:22 26° 294° (WNW) 08:44:52 145.90 MHz
SO-67 01 Nov 08:52:09 08:55:37 78° 102° (ESE) 08:59:03 435.3500 MHz FM
Saudisat 1A 01 Nov 09:17:57 09:20:27 15° 334° (NNW) 09:22:57 436.775 MHz
Sapphire 01 Nov 09:37:30 09:40:24 14° 25° (NNE) 09:43:17 437.095 MHz 1200 baud AX-25 AFSK
PCSat 01 Nov 09:58:47 10:02:30 18° 32° (NNE) 10:06:12 145.825 MHz
JAS-2 01 Nov 10:02:22 10:06:10 15° 315° (NW) 10:09:58 435.800 - 435.900 CW/SSB, 435.910 FM
KITSAT 1 01 Nov 10:02:32 10:06:27 14° 98° (E) 10:10:22 435.175 FM
HO-68 01 Nov 10:06:03 10:12:40 38° 96° (E) 10:19:13 435.675 MHz FM
ISS 01 Nov 10:26:01 10:28:20 18° 137° (SE) 10:30:40 145.800 FM
UKube-1 01 Nov 10:48:08 10:51:51 26° 95° (E) 10:55:31 145.840 MHz, 145.915 MHz
ZACube-1 01 Nov 10:59:47 11:02:17 15° 90° (E) 11:04:45 437.345 MHz
Sapphire 01 Nov 11:20:00 11:25:15 46° 49° (NE) 11:30:27 437.095 MHz 1200 baud AX-25 AFSK
Oscar 11 01 Nov 11:21:53 11:26:09 58° 101° (E) 11:30:24 145.825 FM, Beacon 2401.500 USB
SO-50 01 Nov 11:38:48 11:42:52 34° 117° (ESE) 11:47:03 436.795 FM
FUNcube-1 01 Nov 11:41:19 11:45:18 40° 98° (E) 11:49:12 145.950 - 145.970 MHz USB
PCSat 01 Nov 11:41:31 11:46:57 68° 54° (NE) 11:52:21 145.825 MHz
KITSAT 1 01 Nov 11:52:21 12:00:19 67° 119° (ESE) 12:08:19 435.175 FM
HO-68 01 Nov 11:53:40 12:00:33 51° 296° (WNW) 12:07:25 435.675 MHz FM
ISS 01 Nov 12:01:20 12:04:40 88° 335° (NNW) 12:08:01 145.800 FM
